Wetterdaten: Montag, 23.11.2015
Datum Zeit Auen-Temp. Temp gefhlt Luftfeuchte Luftdruck Regen Wind Richtung Richtung Taupunkt Windben
23.11.2015 00:00 -2,9 C -3,4 C 83 % 1012,6 hPa 0,0 mm 5,4 km/h (1 Bft) SW 225 -5,4 C 6,7 km/h (2 Bft)
23.11.2015 00:05 -2,9 C -3,3 C 83 % 1012,6 hPa 0,0 mm 5,2 km/h (1 Bft) SO 135 -5,4 C 9,3 km/h (2 Bft)
23.11.2015 00:10 -2,9 C -3,4 C 83 % 1012,9 hPa 0,0 mm 5,4 km/h (1 Bft) SW 225 -5,4 C 9,1 km/h (2 Bft)
23.11.2015 00:15 -2,9 C -3,4 C 83 % 1012,9 hPa 0,0 mm 6,0 km/h (2 Bft) W-SW 247 -5,4 C 4,9 km/h (1 Bft)
23.11.2015 00:20 -2,8 C -3,4 C 83 % 1012,9 hPa 0,0 mm 6,5 km/h (2 Bft) S 180 -5,3 C 6,2 km/h (2 Bft)
23.11.2015 00:25 -2,8 C -3,4 C 83 % 1012,9 hPa 0,0 mm 6,2 km/h (2 Bft) SW 225 -5,3 C 8,0 km/h (2 Bft)
23.11.2015 00:30 -2,8 C -3,3 C 84 % 1012,9 hPa 0,0 mm 5,4 km/h (1 Bft) NO 45 -5,1 C 4,9 km/h (1 Bft)
23.11.2015 00:35 -2,8 C -3,3 C 84 % 1012,9 hPa 0,0 mm 5,7 km/h (1 Bft) W-SW 247 -5,1 C 8,8 km/h (2 Bft)
23.11.2015 00:40 -2,8 C -3,2 C 84 % 1012,9 hPa 0,0 mm 5,7 km/h (1 Bft) W-SW 247 -5,1 C 8,3 km/h (2 Bft)
23.11.2015 00:45 -2,8 C -3,3 C 84 % 1012,9 hPa 0,0 mm 6,5 km/h (2 Bft) S 180 -5,1 C 8,3 km/h (2 Bft)
23.11.2015 00:50 -2,8 C -3,2 C 84 % 1012,8 hPa 0,0 mm 6,0 km/h (2 Bft) SW 225 -5,1 C 2,6 km/h (1 Bft)
23.11.2015 00:55 -2,8 C -3,2 C 84 % 1012,8 hPa 0,0 mm 5,4 km/h (1 Bft) W-SW 247 -5,1 C 6,7 km/h (2 Bft)
23.11.2015 01:00 -2,6 C -2,8 C 87 % 1012,8 hPa 0,0 mm 3,4 km/h (1 Bft) SW 225 -4,5 C 0,0 km/h (0 Bft)
23.11.2015 01:05 -2,6 C -2,8 C 87 % 1012,8 hPa 0,0 mm 2,1 km/h (1 Bft) S-SW 202 -4,5 C 2,6 km/h (1 Bft)
23.11.2015 01:10 -2,6 C -2,8 C 87 % 1013,1 hPa 0,0 mm 0,5 km/h (0 Bft) W-SW 247 -4,5 C 0,0 km/h (0 Bft)
23.11.2015 01:15 -2,6 C -2,8 C 87 % 1013,1 hPa 0,0 mm 0,5 km/h (0 Bft) W-SW 247 -4,5 C 3,6 km/h (1 Bft)
23.11.2015 01:20 -2,8 C -2,8 C 84 % 1013,1 hPa 0,0 mm 1,6 km/h (1 Bft) W-SW 247 -5,1 C 0,0 km/h (0 Bft)
23.11.2015 01:25 -2,8 C -2,8 C 84 % 1013,1 hPa 0,0 mm 2,3 km/h (1 Bft) W-SW 247 -5,1 C 3,4 km/h (1 Bft)
23.11.2015 01:30 -2,8 C -2,8 C 84 % 1013,1 hPa 0,0 mm 1,8 km/h (1 Bft) W-SW 247 -5,1 C 0,0 km/h (0 Bft)
23.11.2015 01:35 -2,8 C -2,8 C 84 % 1013,1 hPa 0,0 mm 1,0 km/h (0 Bft) SW 225 -5,1 C 0,0 km/h (0 Bft)
23.11.2015 01:40 -2,8 C -2,8 C 84 % 1013,1 hPa 0,0 mm 0,0 km/h (0 Bft) W-SW 247 -5,1 C 0,0 km/h (0 Bft)
23.11.2015 01:45 -2,6 C -2,8 C 87 % 1013,1 hPa 0,0 mm 0,5 km/h (0 Bft) W 270 -4,5 C 0,0 km/h (0 Bft)
23.11.2015 01:50 -2,8 C -2,8 C 84 % 1013,2 hPa 0,0 mm 0,8 km/h (0 Bft) NW 315 -5,1 C 0,0 km/h (0 Bft)
23.11.2015 01:55 -2,8 C -2,8 C 84 % 1013,2 hPa 0,0 mm 0,3 km/h (0 Bft) W-SW 247 -5,1 C 0,0 km/h (0 Bft)
23.11.2015 02:00 -2,8 C -2,8 C 84 % 1013,2 hPa 0,0 mm 1,0 km/h (0 Bft) W 270 -5,1 C 2,8 km/h (1 Bft)
23.11.2015 02:05 -2,8 C -2,8 C 84 % 1013,2 hPa 0,0 mm 1,3 km/h (1 Bft) W-SW 247 -5,1 C 4,9 km/h (1 Bft)
23.11.2015 02:10 -2,8 C -2,9 C 84 % 1013,5 hPa 0,0 mm 1,8 km/h (1 Bft) W-SW 247 -5,1 C 0,0 km/h (0 Bft)
23.11.2015 02:15 -2,8 C -3,0 C 87 % 1013,5 hPa 0,0 mm 2,1 km/h (1 Bft) S-SW 202 -4,7 C 4,4 km/h (1 Bft)
23.11.2015 02:20 -3,1 C -3,3 C 87 % 1013,5 hPa 0,0 mm 1,8 km/h (1 Bft) SW 225 -4,9 C 3,9 km/h (1 Bft)
23.11.2015 02:25 -3,2 C -3,4 C 86 % 1013,5 hPa 0,0 mm 1,8 km/h (1 Bft) W-SW 247 -5,2 C 3,6 km/h (1 Bft)
23.11.2015 02:30 -3,3 C -3,5 C 86 % 1013,5 hPa 0,0 mm 1,8 km/h (1 Bft) S-SW 202 -5,3 C 2,6 km/h (1 Bft)
23.11.2015 02:35 -3,6 C -3,8 C 86 % 1013,5 hPa 0,0 mm 1,6 km/h (1 Bft) O-SO 112 -5,6 C 0,0 km/h (0 Bft)
23.11.2015 02:40 -3,9 C -4,1 C 86 % 1013,5 hPa 0,0 mm 1,0 km/h (0 Bft) S 180 -5,9 C 0,0 km/h (0 Bft)
23.11.2015 02:45 -4,2 C -4,4 C 86 % 1013,5 hPa 0,0 mm 0,5 km/h (0 Bft) S 180 -6,2 C 0,0 km/h (0 Bft)
23.11.2015 02:50 -4,3 C -4,5 C 86 % 1013,6 hPa 0,0 mm 0,5 km/h (0 Bft) S 180 -6,3 C 0,0 km/h (0 Bft)
23.11.2015 02:55 -4,4 C -4,6 C 86 % 1013,6 hPa 0,0 mm 0,8 km/h (0 Bft) S 180 -6,4 C 0,0 km/h (0 Bft)
23.11.2015 03:00 -4,7 C -4,9 C 86 % 1013,6 hPa 0,0 mm 0,3 km/h (0 Bft) SW 225 -6,7 C 0,0 km/h (0 Bft)
23.11.2015 03:05 -4,8 C -5,1 C 86 % 1013,6 hPa 0,0 mm 0,0 km/h (0 Bft) S-SO 157 -6,8 C 0,0 km/h (0 Bft)
23.11.2015 03:10 -4,8 C -5,2 C 86 % 1013,6 hPa 0,0 mm 0,0 km/h (0 Bft) S-SO 157 -6,8 C 0,0 km/h (0 Bft)
23.11.2015 03:15 -4,9 C -5,3 C 87 % 1013,6 hPa 0,0 mm 0,3 km/h (0 Bft) SO 135 -6,7 C 0,0 km/h (0 Bft)
23.11.2015 03:20 -5,0 C -5,4 C 87 % 1013,6 hPa 0,0 mm 1,0 km/h (0 Bft) S-SW 202 -6,8 C 0,0 km/h (0 Bft)
23.11.2015 03:25 -4,9 C -5,2 C 87 % 1013,6 hPa 0,0 mm 0,8 km/h (0 Bft) S 180 -6,7 C 0,0 km/h (0 Bft)
23.11.2015 03:30 -5,0 C -5,3 C 87 % 1013,7 hPa 0,0 mm 0,0 km/h (0 Bft) S 180 -6,8 C 0,0 km/h (0 Bft)
23.11.2015 03:35 -4,9 C -5,3 C 88 % 1013,7 hPa 0,0 mm 0,0 km/h (0 Bft) S 180 -6,6 C 0,0 km/h (0 Bft)
23.11.2015 03:40 -5,4 C -5,7 C 87 % 1013,7 hPa 0,0 mm 0,0 km/h (0 Bft) W-SW 247 -7,2 C 0,0 km/h (0 Bft)
23.11.2015 03:45 -5,8 C -6,0 C 87 % 1013,7 hPa 0,0 mm 0,5 km/h (0 Bft) W 270 -7,6 C 0,0 km/h (0 Bft)
23.11.2015 03:50 -6,3 C -6,5 C 87 % 1013,8 hPa 0,0 mm 0,5 km/h (0 Bft) W-SW 247 -8,1 C 0,0 km/h (0 Bft)
23.11.2015 03:55 -6,5 C -6,6 C 86 % 1013,8 hPa 0,0 mm 0,0 km/h (0 Bft) S 180 -8,4 C 0,0 km/h (0 Bft)
23.11.2015 04:00 -6,1 C -6,4 C 87 % 1013,8 hPa 0,0 mm 0,0 km/h (0 Bft) S 180 -7,9 C 0,0 km/h (0 Bft)
23.11.2015 04:05 -5,9 C -6,1 C 83 % 1013,8 hPa 0,0 mm 0,0 km/h (0 Bft) S 180 -8,3 C 0,0 km/h (0 Bft)
23.11.2015 04:10 -5,5 C -5,8 C 87 % 1013,9 hPa 0,0 mm 1,0 km/h (0 Bft) SW 225 -7,3 C 4,1 km/h (1 Bft)
23.11.2015 04:15 -5,5 C -5,7 C 83 % 1013,9 hPa 0,0 mm 1,8 km/h (1 Bft) S-SW 202 -7,9 C 0,0 km/h (0 Bft)
23.11.2015 04:20 -4,9 C -5,1 C 83 % 1013,9 hPa 0,0 mm 2,8 km/h (1 Bft) S-SW 202 -7,3 C 5,4 km/h (1 Bft)
23.11.2015 04:25 -4,7 C -5,1 C 88 % 1013,9 hPa 0,0 mm 3,6 km/h (1 Bft) SW 225 -6,4 C 4,1 km/h (1 Bft)
23.11.2015 04:30 -4,7 C -4,9 C 88 % 1014,0 hPa 0,0 mm 2,8 km/h (1 Bft) W-SW 247 -6,4 C 5,7 km/h (1 Bft)
23.11.2015 04:35 -4,7 C -4,9 C 88 % 1014,0 hPa 0,0 mm 2,3 km/h (1 Bft) SW 225 -6,4 C 0,0 km/h (0 Bft)
23.11.2015 04:40 -4,7 C -4,9 C 88 % 1014,0 hPa 0,0 mm 2,8 km/h (1 Bft) N 360 -6,4 C 6,0 km/h (2 Bft)
23.11.2015 04:45 -4,7 C -4,9 C 88 % 1014,0 hPa 0,0 mm 2,8 km/h (1 Bft) S-SW 202 -6,4 C 0,0 km/h (0 Bft)
23.11.2015 04:50 -4,9 C -5,1 C 88 % 1014,2 hPa 0,0 mm 1,6 km/h (1 Bft) S 180 -6,6 C 0,0 km/h (0 Bft)
23.11.2015 04:55 -4,9 C -5,1 C 88 % 1014,2 hPa 0,0 mm 0,8 km/h (0 Bft) S 180 -6,6 C 0,0 km/h (0 Bft)
23.11.2015 05:00 -4,8 C -5,0 C 88 % 1014,2 hPa 0,0 mm 0,0 km/h (0 Bft) S 180 -6,5 C 0,0 km/h (0 Bft)
23.11.2015 05:05 -4,8 C -5,0 C 84 % 1014,2 hPa 0,0 mm 0,0 km/h (0 Bft) SW 225 -7,1 C 0,0 km/h (0 Bft)
23.11.2015 05:10 -4,7 C -4,9 C 89 % 1018,1 hPa 0,0 mm 0,0 km/h (0 Bft) S 180 -6,2 C 0,0 km/h (0 Bft)
23.11.2015 05:15 -4,8 C -5,0 C 88 % 1018,1 hPa 0,0 mm 0,0 km/h (0 Bft) S-SO 157 -6,5 C 0,0 km/h (0 Bft)
23.11.2015 05:20 -5,0 C -5,2 C 88 % 1018,1 hPa 0,0 mm 0,0 km/h (0 Bft) W-SW 247 -6,7 C 0,0 km/h (0 Bft)
23.11.2015 05:25 -5,0 C -5,2 C 88 % 1018,1 hPa 0,0 mm 0,0 km/h (0 Bft) W-SW 247 -6,7 C 0,0 km/h (0 Bft)
23.11.2015 05:30 -4,7 C -4,8 C 84 % 1018,3 hPa 0,0 mm 0,0 km/h (0 Bft) S 180 -7,0 C 0,0 km/h (0 Bft)
23.11.2015 05:35 -4,5 C -4,6 C 84 % 1018,3 hPa 0,0 mm 0,3 km/h (0 Bft) S-SO 157 -6,8 C 0,0 km/h (0 Bft)
23.11.2015 05:40 -4,4 C -4,5 C 84 % 1018,3 hPa 0,0 mm 0,5 km/h (0 Bft) S-SO 157 -6,7 C 7,5 km/h (2 Bft)
23.11.2015 05:45 -4,3 C -4,5 C 89 % 1018,3 hPa 0,0 mm 0,5 km/h (0 Bft) S-SO 157 -5,8 C 0,0 km/h (0 Bft)
23.11.2015 05:50 -4,3 C -4,4 C 84 % 1018,6 hPa 0,0 mm 0,0 km/h (0 Bft) S-SO 157 -6,6 C 0,0 km/h (0 Bft)
23.11.2015 05:55 -4,3 C -4,4 C 84 % 1018,6 hPa 0,0 mm 0,0 km/h (0 Bft) S-SO 157 -6,6 C 0,0 km/h (0 Bft)
23.11.2015 06:00 -4,3 C -4,5 C 89 % 1018,6 hPa 0,0 mm 0,0 km/h (0 Bft) W-SW 247 -5,8 C 0,0 km/h (0 Bft)
23.11.2015 06:05 -4,3 C -4,4 C 84 % 1018,6 hPa 0,0 mm 0,0 km/h (0 Bft) W-SW 247 -6,6 C 0,0 km/h (0 Bft)
23.11.2015 06:10 -4,3 C -4,3 C 84 % 1018,9 hPa 0,0 mm 0,0 km/h (0 Bft) S-SO 157 -6,6 C 0,0 km/h (0 Bft)
23.11.2015 06:15 -4,0 C -4,1 C 84 % 1018,9 hPa 0,0 mm 0,0 km/h (0 Bft) S-SO 157 -6,3 C 0,0 km/h (0 Bft)
23.11.2015 06:20 -4,0 C -4,1 C 84 % 1018,9 hPa 0,0 mm 0,0 km/h (0 Bft) S-SO 157 -6,3 C 0,0 km/h (0 Bft)
23.11.2015 06:25 -3,9 C -4,1 C 84 % 1018,9 hPa 0,0 mm 0,0 km/h (0 Bft) W-SW 247 -6,2 C 0,0 km/h (0 Bft)
23.11.2015 06:30 -3,8 C -3,9 C 84 % 1019,2 hPa 0,0 mm 0,0 km/h (0 Bft) S 180 -6,1 C 0,0 km/h (0 Bft)
23.11.2015 06:35 -3,8 C -3,8 C 84 % 1019,2 hPa 0,0 mm 0,5 km/h (0 Bft) S-SW 202 -6,1 C 2,8 km/h (1 Bft)
23.11.2015 06:40 -3,7 C -3,8 C 84 % 1019,2 hPa 0,0 mm 2,3 km/h (1 Bft) SW 225 -6,0 C 5,4 km/h (1 Bft)
23.11.2015 06:45 -3,5 C -3,8 C 89 % 1019,2 hPa 0,0 mm 3,6 km/h (1 Bft) SW 225 -5,0 C 4,1 km/h (1 Bft)
23.11.2015 06:50 -3,5 C -3,8 C 84 % 1019,3 hPa 0,0 mm 4,1 km/h (1 Bft) SW 225 -5,8 C 8,8 km/h (2 Bft)
23.11.2015 06:55 -3,4 C -3,6 C 84 % 1019,3 hPa 0,0 mm 3,6 km/h (1 Bft) W-SW 247 -5,7 C 2,6 km/h (1 Bft)
23.11.2015 07:00 -3,4 C -3,5 C 84 % 1019,3 hPa 0,0 mm 2,8 km/h (1 Bft) W-SW 247 -5,7 C 2,6 km/h (1 Bft)
23.11.2015 07:05 -3,4 C -3,5 C 84 % 1019,3 hPa 0,0 mm 1,6 km/h (1 Bft) SW 225 -5,7 C 0,0 km/h (0 Bft)
23.11.2015 07:10 -3,3 C -3,5 C 89 % 1019,8 hPa 0,0 mm 2,3 km/h (1 Bft) SW 225 -4,8 C 3,6 km/h (1 Bft)
23.11.2015 07:15 -3,3 C -3,5 C 89 % 1019,8 hPa 0,0 mm 3,4 km/h (1 Bft) W-SW 247 -4,8 C 4,9 km/h (1 Bft)
23.11.2015 07:20 -3,3 C -3,5 C 89 % 1019,8 hPa 0,0 mm 3,4 km/h (1 Bft) S 180 -4,8 C 3,9 km/h (1 Bft)
23.11.2015 07:25 -3,3 C -3,5 C 89 % 1019,8 hPa 0,0 mm 2,3 km/h (1 Bft) SW 225 -4,8 C 0,0 km/h (0 Bft)
23.11.2015 07:30 -3,4 C -3,6 C 88 % 1019,8 hPa 0,0 mm 2,1 km/h (1 Bft) S 180 -5,1 C 5,7 km/h (1 Bft)
23.11.2015 07:35 -3,4 C -3,6 C 88 % 1019,8 hPa 0,0 mm 2,8 km/h (1 Bft) S 180 -5,1 C 6,0 km/h (2 Bft)
23.11.2015 07:40 -3,4 C -3,8 C 84 % 1019,8 hPa 0,0 mm 4,9 km/h (1 Bft) SW 225 -5,7 C 5,7 km/h (1 Bft)
23.11.2015 07:45 -3,4 C -3,6 C 84 % 1019,8 hPa 0,0 mm 3,9 km/h (1 Bft) SW 225 -5,7 C 3,6 km/h (1 Bft)
23.11.2015 07:50 -3,3 C -3,4 C 84 % 1020,1 hPa 0,0 mm 1,6 km/h (1 Bft) SW 225 -5,6 C 0,0 km/h (0 Bft)
23.11.2015 07:55 -3,3 C -3,4 C 84 % 1020,1 hPa 0,0 mm 1,0 km/h (0 Bft) W-SW 247 -5,6 C 0,0 km/h (0 Bft)
23.11.2015 08:00 -3,3 C -3,3 C 84 % 1020,1 hPa 0,0 mm 1,3 km/h (1 Bft) S 180 -5,6 C 0,0 km/h (0 Bft)
23.11.2015 08:06 -3,2 C -3,2 C 84 % 1016,4 hPa 0,0 mm 2,3 km/h (1 Bft) S 180 -5,5 C 4,1 km/h (1 Bft)
23.11.2015 08:10 -3,2 C -3,2 C 84 % 1016,8 hPa 0,0 mm 2,8 km/h (1 Bft) SW 225 -5,5 C 0,0 km/h (0 Bft)
23.11.2015 08:15 -3,2 C -3,2 C 84 % 1016,8 hPa 0,0 mm 1,8 km/h (1 Bft) S-SO 157 -5,5 C 0,0 km/h (0 Bft)
23.11.2015 08:20 -3,2 C -3,3 C 84 % 1016,8 hPa 0,0 mm 0,0 km/h (0 Bft) S 180 -5,5 C 0,0 km/h (0 Bft)
23.11.2015 08:25 -3,2 C -3,1 C 84 % 1016,8 hPa 0,0 mm 0,5 km/h (0 Bft) W-SW 247 -5,5 C 8,5 km/h (2 Bft)
23.11.2015 08:30 -3,0 C -2,7 C 84 % 1017,1 hPa 0,0 mm 3,1 km/h (1 Bft) W-SW 247 -5,3 C 5,4 km/h (1 Bft)
23.11.2015 08:35 -2,9 C -2,7 C 84 % 1017,1 hPa 0,0 mm 4,4 km/h (1 Bft) SW 225 -5,2 C 4,1 km/h (1 Bft)
23.11.2015 08:40 -2,9 C -2,6 C 84 % 1017,1 hPa 0,0 mm 4,1 km/h (1 Bft) S-SO 157 -5,2 C 0,0 km/h (0 Bft)
23.11.2015 08:45 -2,9 C -2,5 C 84 % 1017,1 hPa 0,0 mm 2,6 km/h (1 Bft) W-SW 247 -5,2 C 3,1 km/h (1 Bft)
23.11.2015 08:50 -2,8 C -2,2 C 84 % 1017,5 hPa 0,0 mm 0,8 km/h (0 Bft) SW 225 -5,1 C 0,0 km/h (0 Bft)
23.11.2015 08:55 -2,6 C -2,0 C 84 % 1017,5 hPa 0,0 mm 1,0 km/h (0 Bft) W-SW 247 -4,9 C 5,4 km/h (1 Bft)
23.11.2015 09:00 -2,4 C -1,4 C 84 % 1017,5 hPa 0,0 mm 0,5 km/h (0 Bft) W-NW 292 -4,7 C 0,0 km/h (0 Bft)
23.11.2015 09:05 -2,3 C -1,3 C 84 % 1017,5 hPa 0,0 mm 0,3 km/h (0 Bft) W-NW 292 -4,6 C 0,0 km/h (0 Bft)
23.11.2015 09:10 -2,4 C -1,3 C 84 % 1017,8 hPa 0,0 mm 0,0 km/h (0 Bft) SW 225 -4,7 C 0,0 km/h (0 Bft)
23.11.2015 09:15 -2,4 C -1,4 C 84 % 1017,8 hPa 0,0 mm 0,0 km/h (0 Bft) S-SO 157 -4,7 C 0,0 km/h (0 Bft)
23.11.2015 09:20 -2,3 C -1,4 C 83 % 1017,8 hPa 0,0 mm 0,0 km/h (0 Bft) S-SO 157 -4,8 C 0,0 km/h (0 Bft)
23.11.2015 09:25 -2,2 C -1,3 C 83 % 1017,8 hPa 0,0 mm 0,0 km/h (0 Bft) S-SO 157 -4,7 C 0,0 km/h (0 Bft)
23.11.2015 09:30 -2,0 C -0,7 C 83 % 1018,2 hPa 0,0 mm 0,0 km/h (0 Bft) S 180 -4,5 C 0,0 km/h (0 Bft)
23.11.2015 09:35 -2,0 C 0,0 C 83 % 1018,2 hPa 0,0 mm 0,0 km/h (0 Bft) S 180 -4,5 C 0,0 km/h (0 Bft)
23.11.2015 09:40 -1,8 C 0,6 C 83 % 1018,2 hPa 0,0 mm 0,3 km/h (0 Bft) S 180 -4,3 C 3,9 km/h (1 Bft)
23.11.2015 09:45 -1,6 C 0,8 C 83 % 1018,2 hPa 0,0 mm 1,3 km/h (1 Bft) W-SW 247 -4,1 C 0,0 km/h (0 Bft)
23.11.2015 09:50 -1,4 C 0,9 C 83 % 1018,6 hPa 0,0 mm 1,8 km/h (1 Bft) SW 225 -3,9 C 0,0 km/h (0 Bft)
23.11.2015 09:55 -1,4 C 0,8 C 83 % 1018,6 hPa 0,0 mm 0,8 km/h (0 Bft) W 270 -3,9 C 3,9 km/h (1 Bft)
23.11.2015 10:00 -1,4 C 0,7 C 83 % 1018,6 hPa 0,0 mm 1,3 km/h (1 Bft) W 270 -3,9 C 4,7 km/h (1 Bft)
23.11.2015 10:05 -1,3 C 0,7 C 82 % 1018,6 hPa 0,0 mm 2,1 km/h (1 Bft) W-SW 247 -4,0 C 3,4 km/h (1 Bft)
23.11.2015 10:10 -1,3 C 0,6 C 82 % 1018,8 hPa 0,0 mm 2,6 km/h (1 Bft) S-SO 157 -4,0 C 4,9 km/h (1 Bft)
23.11.2015 10:15 -1,2 C 0,6 C 82 % 1018,8 hPa 0,0 mm 2,3 km/h (1 Bft) W-NW 292 -3,9 C 0,0 km/h (0 Bft)
23.11.2015 10:20 -1,0 C 0,5 C 82 % 1018,8 hPa 0,0 mm 2,8 km/h (1 Bft) W 270 -3,7 C 10,4 km/h (2 Bft)
23.11.2015 10:25 -1,0 C 0,5 C 82 % 1018,8 hPa 0,0 mm 3,4 km/h (1 Bft) NW 315 -3,7 C 3,4 km/h (1 Bft)
23.11.2015 10:30 -1,0 C 0,6 C 82 % 1019,2 hPa 0,0 mm 3,6 km/h (1 Bft) W 270 -3,7 C 10,4 km/h (2 Bft)
23.11.2015 10:35 -1,0 C 0,6 C 82 % 1019,2 hPa 0,0 mm 2,6 km/h (1 Bft) W-SW 247 -3,7 C 0,0 km/h (0 Bft)
23.11.2015 10:40 -0,9 C 0,9 C 81 % 1019,2 hPa 0,0 mm 3,1 km/h (1 Bft) S-SW 202 -3,7 C 7,3 km/h (2 Bft)
23.11.2015 10:45 -0,8 C 1,2 C 81 % 1019,2 hPa 0,0 mm 3,6 km/h (1 Bft) W-SW 247 -3,6 C 2,6 km/h (1 Bft)
23.11.2015 10:50 -0,4 C 2,0 C 81 % 1019,4 hPa 0,0 mm 3,6 km/h (1 Bft) W 270 -3,3 C 2,6 km/h (1 Bft)
23.11.2015 10:55 -0,3 C 2,4 C 81 % 1019,4 hPa 0,0 mm 3,1 km/h (1 Bft) O 90 -3,2 C 2,8 km/h (1 Bft)
23.11.2015 11:00 0,0 C 2,7 C 80 % 1019,4 hPa 0,0 mm 3,9 km/h (1 Bft) N-NW 337 -3,0 C 4,7 km/h (1 Bft)
23.11.2015 11:05 -0,1 C 2,7 C 80 % 1019,4 hPa 0,0 mm 4,1 km/h (1 Bft) W-NW 292 -3,1 C 3,4 km/h (1 Bft)
23.11.2015 11:10 -0,3 C 1,9 C 80 % 1019,6 hPa 0,0 mm 4,9 km/h (1 Bft) W 270 -3,3 C 12,9 km/h (3 Bft)
23.11.2015 11:15 -0,4 C 1,5 C 79 % 1019,6 hPa 0,0 mm 5,2 km/h (1 Bft) W 270 -3,6 C 13,2 km/h (3 Bft)
23.11.2015 11:20 -0,5 C 0,9 C 79 % 1019,6 hPa 0,0 mm 5,4 km/h (1 Bft) W 270 -3,7 C 8,0 km/h (2 Bft)
23.11.2015 11:25 -0,5 C 0,7 C 79 % 1019,6 hPa 0,0 mm 5,7 km/h (1 Bft) W 270 -3,7 C 6,5 km/h (2 Bft)
23.11.2015 11:30 -0,7 C 0,5 C 79 % 1019,4 hPa 0,0 mm 5,2 km/h (1 Bft) W 270 -3,9 C 8,0 km/h (2 Bft)
23.11.2015 11:35 -0,7 C 0,6 C 79 % 1019,4 hPa 0,0 mm 4,7 km/h (1 Bft) W-SW 247 -3,9 C 7,5 km/h (2 Bft)
23.11.2015 11:40 -0,8 C 0,6 C 79 % 1019,4 hPa 0,0 mm 2,6 km/h (1 Bft) NW 315 -4,0 C 5,2 km/h (1 Bft)
23.11.2015 11:45 -0,9 C 0,2 C 79 % 1019,4 hPa 0,0 mm 4,1 km/h (1 Bft) W-NW 292 -4,1 C 12,9 km/h (3 Bft)
23.11.2015 11:50 -0,8 C 0,1 C 79 % 1019,6 hPa 0,0 mm 5,2 km/h (1 Bft) W 270 -4,0 C 9,1 km/h (2 Bft)
23.11.2015 11:55 -0,9 C 0,1 C 78 % 1019,6 hPa 0,0 mm 4,9 km/h (1 Bft) W-SW 247 -4,2 C 5,4 km/h (1 Bft)
23.11.2015 12:00 -1,2 C -0,1 C 78 % 1019,6 hPa 0,0 mm 4,1 km/h (1 Bft) S-SW 202 -4,5 C 6,2 km/h (2 Bft)
23.11.2015 12:05 -1,3 C -0,3 C 78 % 1019,6 hPa 0,0 mm 4,4 km/h (1 Bft) SW 225 -4,6 C 5,4 km/h (1 Bft)
23.11.2015 12:10 -1,1 C 0,4 C 78 % 1019,6 hPa 0,0 mm 3,1 km/h (1 Bft) W-SW 247 -4,4 C 6,0 km/h (2 Bft)
23.11.2015 12:15 -0,8 C 1,2 C 78 % 1019,6 hPa 0,0 mm 3,4 km/h (1 Bft) W 270 -4,1 C 8,3 km/h (2 Bft)
23.11.2015 12:20 -0,5 C 1,6 C 78 % 1019,6 hPa 0,0 mm 6,0 km/h (2 Bft) W-NW 292 -3,9 C 15,8 km/h (3 Bft)
23.11.2015 12:25 -0,7 C 0,7 C 78 % 1019,6 hPa 0,0 mm 6,7 km/h (2 Bft) W-NW 292 -4,0 C 5,7 km/h (1 Bft)
23.11.2015 12:30 -0,8 C 0,0 C 78 % 1019,5 hPa 0,0 mm 6,2 km/h (2 Bft) W-NW 292 -4,1 C 4,9 km/h (1 Bft)
23.11.2015 12:35 -1,0 C -0,4 C 78 % 1019,5 hPa 0,0 mm 5,4 km/h (1 Bft) W 270 -4,3 C 7,8 km/h (2 Bft)
23.11.2015 12:40 -1,2 C -0,9 C 78 % 1019,5 hPa 0,0 mm 7,3 km/h (2 Bft) W-NW 292 -4,5 C 18,9 km/h (3 Bft)
23.11.2015 12:45 -1,2 C -1,2 C 78 % 1019,5 hPa 0,0 mm 9,3 km/h (2 Bft) W-NW 292 -4,5 C 25,9 km/h (4 Bft)
23.11.2015 12:50 -1,2 C -1,5 C 78 % 1019,6 hPa 0,0 mm 10,4 km/h (2 Bft) W-NW 292 -4,5 C 17,6 km/h (3 Bft)
23.11.2015 12:55 -1,1 C -1,6 C 78 % 1019,6 hPa 0,0 mm 10,1 km/h (2 Bft) NW 315 -4,4 C 6,2 km/h (2 Bft)
23.11.2015 13:00 -1,1 C -1,3 C 78 % 1019,6 hPa 0,0 mm 8,0 km/h (2 Bft) NW 315 -4,4 C 7,0 km/h (2 Bft)
23.11.2015 13:05 -1,0 C -0,8 C 78 % 1019,6 hPa 0,0 mm 6,2 km/h (2 Bft) W 270 -4,3 C 7,0 km/h (2 Bft)
23.11.2015 13:10 -0,7 C 0,5 C 78 % 1019,6 hPa 0,0 mm 4,7 km/h (1 Bft) N-NW 337 -4,0 C 0,0 km/h (0 Bft)
23.11.2015 13:15 -0,4 C 1,0 C 78 % 1019,6 hPa 0,0 mm 4,4 km/h (1 Bft) W-SW 247 -3,8 C 5,2 km/h (1 Bft)
23.11.2015 13:20 0,0 C 1,6 C 78 % 1019,6 hPa 0,0 mm 4,4 km/h (1 Bft) W-NW 292 -3,4 C 4,1 km/h (1 Bft)
23.11.2015 13:25 0,0 C 1,8 C 78 % 1019,6 hPa 0,0 mm 4,7 km/h (1 Bft) W-SW 247 -3,4 C 2,6 km/h (1 Bft)
23.11.2015 13:30 0,7 C 3,4 C 78 % 1019,7 hPa 0,0 mm 3,9 km/h (1 Bft) W 270 -2,7 C 2,8 km/h (1 Bft)
23.11.2015 13:35 1,0 C 4,9 C 77 % 1019,7 hPa 0,0 mm 3,6 km/h (1 Bft) W-NW 292 -2,6 C 7,3 km/h (2 Bft)
23.11.2015 13:40 1,7 C 6,0 C 77 % 1019,7 hPa 0,0 mm 3,9 km/h (1 Bft) NW 315 -1,9 C 2,8 km/h (1 Bft)
23.11.2015 13:45 1,8 C 6,2 C 77 % 1019,7 hPa 0,0 mm 6,2 km/h (2 Bft) W 270 -1,8 C 12,2 km/h (2 Bft)
23.11.2015 13:50 1,3 C 4,8 C 76 % 1020,1 hPa 0,0 mm 8,3 km/h (2 Bft) NW 315 -2,5 C 5,7 km/h (1 Bft)
23.11.2015 13:55 1,2 C 5,0 C 76 % 1020,1 hPa 0,0 mm 6,7 km/h (2 Bft) NW 315 -2,5 C 0,0 km/h (0 Bft)
23.11.2015 14:00 0,5 C 5,7 C 75 % 1020,1 hPa 0,0 mm 3,9 km/h (1 Bft) W-NW 292 -3,4 C 7,0 km/h (2 Bft)
23.11.2015 14:05 0,2 C 5,5 C 75 % 1020,1 hPa 0,0 mm 4,4 km/h (1 Bft) W 270 -3,7 C 9,3 km/h (2 Bft)
23.11.2015 14:07 0,2 C 5,5 C 75 % 1020,1 hPa 0,0 mm 4,4 km/h (1 Bft) W 270 -3,7 C 9,3 km/h (2 Bft)
23.11.2015 14:10 -0,1 C 4,4 C 75 % 1020,8 hPa 0,0 mm 6,7 km/h (2 Bft) W-NW 292 -4,0 C 14,2 km/h (3 Bft)
23.11.2015 14:15 -0,4 C 2,4 C 75 % 1020,8 hPa 0,0 mm 7,8 km/h (2 Bft) W-NW 292 -4,3 C 6,7 km/h (2 Bft)
23.11.2015 14:20 -0,5 C 0,4 C 75 % 1020,8 hPa 0,0 mm 8,0 km/h (2 Bft) W-NW 292 -4,4 C 7,3 km/h (2 Bft)
23.11.2015 14:25 -0,3 C 0,3 C 75 % 1020,8 hPa 0,0 mm 6,5 km/h (2 Bft) W 270 -4,2 C 0,0 km/h (0 Bft)
23.11.2015 14:30 -0,1 C 1,6 C 74 % 1020,7 hPa 0,0 mm 4,9 km/h (1 Bft) W-SW 247 -4,2 C 4,9 km/h (1 Bft)
23.11.2015 14:35 -0,5 C 3,1 C 74 % 1020,7 hPa 0,0 mm 3,9 km/h (1 Bft) W 270 -4,5 C 0,0 km/h (0 Bft)
23.11.2015 14:40 -0,8 C 4,0 C 74 % 1020,7 hPa 0,0 mm 4,4 km/h (1 Bft) S-SW 202 -4,8 C 11,1 km/h (2 Bft)
23.11.2015 14:45 -0,8 C 4,3 C 74 % 1020,7 hPa 0,0 mm 4,1 km/h (1 Bft) W-SW 247 -4,8 C 0,0 km/h (0 Bft)
23.11.2015 14:50 -1,3 C 3,7 C 74 % 1020,6 hPa 0,0 mm 2,8 km/h (1 Bft) S-SW 202 -5,3 C 6,0 km/h (2 Bft)
23.11.2015 14:55 -1,4 C 2,8 C 74 % 1020,6 hPa 0,0 mm 2,3 km/h (1 Bft) W-SW 247 -5,4 C 0,0 km/h (0 Bft)
23.11.2015 15:00 -1,5 C 3,0 C 74 % 1020,6 hPa 0,0 mm 3,1 km/h (1 Bft) W 270 -5,5 C 4,1 km/h (1 Bft)
23.11.2015 15:05 -1,5 C 3,2 C 74 % 1020,6 hPa 0,0 mm 2,6 km/h (1 Bft) W-SW 247 -5,5 C 0,0 km/h (0 Bft)
23.11.2015 15:10 -1,8 C 1,6 C 74 % 1020,8 hPa 0,0 mm 3,6 km/h (1 Bft) W 270 -5,8 C 4,4 km/h (1 Bft)
23.11.2015 15:15 -2,0 C 0,1 C 75 % 1020,8 hPa 0,0 mm 4,1 km/h (1 Bft) W 270 -5,8 C 3,4 km/h (1 Bft)
23.11.2015 15:20 -2,1 C -1,2 C 75 % 1020,8 hPa 0,0 mm 3,4 km/h (1 Bft) W-SW 247 -5,9 C 4,4 km/h (1 Bft)
23.11.2015 15:25 -2,3 C -1,9 C 75 % 1020,8 hPa 0,0 mm 1,6 km/h (1 Bft) W-NW 292 -6,1 C 0,0 km/h (0 Bft)
23.11.2015 15:30 -2,4 C -2,4 C 75 % 1020,6 hPa 0,0 mm 1,6 km/h (1 Bft) W-NW 292 -6,2 C 0,0 km/h (0 Bft)
23.11.2015 15:35 -2,5 C -2,6 C 75 % 1020,6 hPa 0,0 mm 1,0 km/h (0 Bft) W-SW 247 -6,3 C 0,0 km/h (0 Bft)
23.11.2015 15:40 -2,4 C -2,6 C 75 % 1020,6 hPa 0,0 mm 0,3 km/h (0 Bft) SW 225 -6,2 C 0,0 km/h (0 Bft)
23.11.2015 15:45 -2,4 C -2,7 C 76 % 1020,6 hPa 0,0 mm 0,0 km/h (0 Bft) S-SO 157 -6,0 C 0,0 km/h (0 Bft)
23.11.2015 15:50 -2,3 C -2,7 C 77 % 1020,6 hPa 0,0 mm 0,3 km/h (0 Bft) S-SO 157 -5,8 C 0,0 km/h (0 Bft)
23.11.2015 15:55 -2,4 C -2,8 C 77 % 1020,6 hPa 0,0 mm 0,5 km/h (0 Bft) S 180 -5,9 C 0,0 km/h (0 Bft)
23.11.2015 16:00 -2,6 C -3,0 C 78 % 1020,6 hPa 0,0 mm 0,3 km/h (0 Bft) S 180 -5,9 C 0,0 km/h (0 Bft)
23.11.2015 16:05 -2,5 C -2,9 C 78 % 1020,6 hPa 0,0 mm 0,3 km/h (0 Bft) SW 225 -5,8 C 0,0 km/h (0 Bft)
23.11.2015 16:10 -2,9 C -3,3 C 78 % 1020,6 hPa 0,0 mm 0,3 km/h (0 Bft) S 180 -6,2 C 0,0 km/h (0 Bft)
23.11.2015 16:15 -2,8 C -3,3 C 78 % 1020,6 hPa 0,0 mm 0,8 km/h (0 Bft) S-SW 202 -6,1 C 4,1 km/h (1 Bft)
23.11.2015 16:20 -2,8 C -3,3 C 79 % 1020,6 hPa 0,0 mm 1,3 km/h (1 Bft) S-SW 202 -5,9 C 3,6 km/h (1 Bft)
23.11.2015 16:25 -2,9 C -3,3 C 78 % 1020,6 hPa 0,0 mm 2,1 km/h (1 Bft) S 180 -6,2 C 3,1 km/h (1 Bft)
23.11.2015 16:30 -3,3 C -3,7 C 80 % 1020,9 hPa 0,0 mm 1,6 km/h (1 Bft) S-SO 157 -6,2 C 0,0 km/h (0 Bft)
23.11.2015 16:35 -3,4 C -3,8 C 80 % 1020,9 hPa 0,0 mm 0,3 km/h (0 Bft) SO 135 -6,3 C 0,0 km/h (0 Bft)
23.11.2015 16:40 -3,6 C -4,0 C 81 % 1020,9 hPa 0,0 mm 0,8 km/h (0 Bft) SW 225 -6,4 C 4,9 km/h (1 Bft)
23.11.2015 16:45 -3,9 C -4,0 C 78 % 1020,9 hPa 0,0 mm 1,6 km/h (1 Bft) SW 225 -7,2 C 6,2 km/h (2 Bft)
23.11.2015 16:50 -4,3 C -4,2 C 78 % 1020,9 hPa 0,0 mm 2,1 km/h (1 Bft) S 180 -7,5 C 0,0 km/h (0 Bft)
23.11.2015 16:55 -4,0 C -4,1 C 79 % 1020,9 hPa 0,0 mm 2,8 km/h (1 Bft) SW 225 -7,1 C 7,8 km/h (2 Bft)
23.11.2015 17:00 -3,9 C -4,1 C 79 % 1020,9 hPa 0,0 mm 2,3 km/h (1 Bft) SW 225 -7,0 C 0,0 km/h (0 Bft)
23.11.2015 17:05 -3,9 C -4,2 C 82 % 1020,9 hPa 0,0 mm 1,3 km/h (1 Bft) S 180 -6,5 C 0,0 km/h (0 Bft)
23.11.2015 17:10 -3,9 C -4,3 C 83 % 1021,1 hPa 0,0 mm 0,0 km/h (0 Bft) S-SW 202 -6,4 C 0,0 km/h (0 Bft)
23.11.2015 17:15 -4,0 C -4,5 C 83 % 1021,1 hPa 0,0 mm 0,0 km/h (0 Bft) S 180 -6,4 C 0,0 km/h (0 Bft)
23.11.2015 17:20 -4,8 C -5,2 C 83 % 1021,1 hPa 0,0 mm 0,0 km/h (0 Bft) S-SO 157 -7,2 C 0,0 km/h (0 Bft)
23.11.2015 17:25 -5,5 C -5,8 C 82 % 1021,1 hPa 0,0 mm 0,0 km/h (0 Bft) S-SO 157 -8,1 C 0,0 km/h (0 Bft)
23.11.2015 17:30 -5,4 C -5,9 C 82 % 1021,1 hPa 0,0 mm 0,0 km/h (0 Bft) S-SO 157 -8,0 C 0,0 km/h (0 Bft)
23.11.2015 17:35 -5,5 C -6,0 C 82 % 1021,1 hPa 0,0 mm 0,0 km/h (0 Bft) S-SO 157 -8,1 C 0,0 km/h (0 Bft)
23.11.2015 17:40 -5,3 C -6,0 C 83 % 1027,4 hPa 0,0 mm 0,0 km/h (0 Bft) S-SO 157 -7,7 C 0,0 km/h (0 Bft)
23.11.2015 17:45 -5,0 C -5,8 C 83 % 1025,3 hPa 0,0 mm 0,0 km/h (0 Bft) S-SO 157 -7,4 C 0,0 km/h (0 Bft)
23.11.2015 17:50 -5,0 C -5,7 C 84 % 1025,8 hPa 0,0 mm 0,0 km/h (0 Bft) S-SO 157 -7,3 C 0,0 km/h (0 Bft)
23.11.2015 17:55 -5,2 C -5,8 C 80 % 1025,1 hPa 0,0 mm 0,0 km/h (0 Bft) S-SO 157 -8,1 C 0,0 km/h (0 Bft)
23.11.2015 18:00 -5,3 C -5,9 C 84 % 1025,1 hPa 0,0 mm 0,0 km/h (0 Bft) NW 315 -7,6 C 0,0 km/h (0 Bft)
23.11.2015 18:02 -5,3 C -5,9 C 84 % 1024,6 hPa 0,0 mm 0,0 km/h (0 Bft) NW 315 -7,6 C 0,0 km/h (0 Bft)
23.11.2015 18:05 -5,6 C -6,1 C 84 % 1024,6 hPa 0,0 mm 0,0 km/h (0 Bft) O-SO 112 -7,9 C 0,0 km/h (0 Bft)
23.11.2015 18:10 -5,3 C -5,9 C 84 % 1024,6 hPa 0,0 mm 0,0 km/h (0 Bft) SO 135 -7,6 C 0,0 km/h (0 Bft)
23.11.2015 18:15 -5,1 C -5,8 C 85 % 1025,3 hPa 0,0 mm 0,0 km/h (0 Bft) SO 135 -7,2 C 0,0 km/h (0 Bft)
23.11.2015 18:20 -5,0 C -5,6 C 86 % 1025,3 hPa 0,0 mm 0,0 km/h (0 Bft) S-SO 157 -7,0 C 0,0 km/h (0 Bft)
23.11.2015 18:25 -5,0 C -5,6 C 86 % 1025,3 hPa 0,0 mm 0,0 km/h (0 Bft) S-SO 157 -7,0 C 0,0 km/h (0 Bft)
23.11.2015 18:30 -5,9 C -6,3 C 86 % 1025,3 hPa 0,0 mm 0,0 km/h (0 Bft) SO 135 -7,9 C 0,0 km/h (0 Bft)
23.11.2015 18:35 -6,3 C -6,7 C 85 % 1025,4 hPa 0,0 mm 0,0 km/h (0 Bft) S 180 -8,4 C 0,0 km/h (0 Bft)
23.11.2015 18:40 -5,6 C -6,3 C 85 % 1025,4 hPa 0,0 mm 0,0 km/h (0 Bft) S 180 -7,7 C 0,0 km/h (0 Bft)
23.11.2015 18:45 -5,4 C -6,2 C 86 % 1025,4 hPa 0,0 mm 0,0 km/h (0 Bft) S-SO 157 -7,4 C 0,0 km/h (0 Bft)
23.11.2015 18:50 -5,2 C -6,0 C 86 % 1025,4 hPa 0,0 mm 0,0 km/h (0 Bft) S-SO 157 -7,2 C 0,0 km/h (0 Bft)
23.11.2015 18:55 -5,2 C -6,0 C 86 % 1025,6 hPa 0,0 mm 0,0 km/h (0 Bft) S 180 -7,2 C 0,0 km/h (0 Bft)
23.11.2015 19:00 -5,2 C -6,0 C 87 % 1025,6 hPa 0,0 mm 0,0 km/h (0 Bft) S-SO 157 -7,0 C 0,0 km/h (0 Bft)
23.11.2015 19:05 -5,5 C -6,2 C 86 % 1025,6 hPa 0,0 mm 0,0 km/h (0 Bft) SO 135 -7,5 C 0,0 km/h (0 Bft)
23.11.2015 19:10 -6,5 C -6,9 C 86 % 1025,6 hPa 0,0 mm 0,0 km/h (0 Bft) SO 135 -8,4 C 0,0 km/h (0 Bft)
23.11.2015 19:15 -6,7 C -7,1 C 85 % 1025,8 hPa 0,0 mm 0,0 km/h (0 Bft) S-SO 157 -8,8 C 0,0 km/h (0 Bft)
23.11.2015 19:20 -6,3 C -6,9 C 86 % 1025,8 hPa 0,0 mm 0,0 km/h (0 Bft) S 180 -8,2 C 0,0 km/h (0 Bft)
23.11.2015 19:25 -6,3 C -6,9 C 86 % 1025,8 hPa 0,0 mm 0,0 km/h (0 Bft) S 180 -8,2 C 0,0 km/h (0 Bft)
23.11.2015 19:30 -6,5 C -7,1 C 86 % 1025,8 hPa 0,0 mm 0,0 km/h (0 Bft) S-SW 202 -8,4 C 0,0 km/h (0 Bft)
23.11.2015 19:35 -6,5 C -7,1 C 86 % 1025,8 hPa 0,0 mm 0,0 km/h (0 Bft) S 180 -8,4 C 0,0 km/h (0 Bft)
23.11.2015 19:40 -6,5 C -7,2 C 86 % 1025,8 hPa 0,0 mm 0,0 km/h (0 Bft) S 180 -8,4 C 0,0 km/h (0 Bft)
23.11.2015 19:45 -6,8 C -7,4 C 85 % 1025,8 hPa 0,0 mm 0,0 km/h (0 Bft) S 180 -8,9 C 0,0 km/h (0 Bft)
23.11.2015 19:50 -6,5 C -7,2 C 86 % 1025,8 hPa 0,0 mm 0,0 km/h (0 Bft) S-SO 157 -8,4 C 0,0 km/h (0 Bft)
23.11.2015 19:55 -6,3 C -7,1 C 86 % 1025,9 hPa 0,0 mm 0,0 km/h (0 Bft) S 180 -8,2 C 0,0 km/h (0 Bft)
23.11.2015 20:00 -7,2 C -7,7 C 86 % 1025,9 hPa 0,0 mm 0,0 km/h (0 Bft) S 180 -9,1 C 0,0 km/h (0 Bft)
23.11.2015 20:05 -7,3 C -7,8 C 86 % 1025,9 hPa 0,0 mm 0,0 km/h (0 Bft) S 180 -9,2 C 0,0 km/h (0 Bft)
23.11.2015 20:10 -7,6 C -7,9 C 85 % 1025,9 hPa 0,0 mm 0,0 km/h (0 Bft) SO 135 -9,7 C 0,0 km/h (0 Bft)
23.11.2015 20:15 -7,4 C -7,8 C 85 % 1025,8 hPa 0,0 mm 0,0 km/h (0 Bft) SO 135 -9,5 C 0,0 km/h (0 Bft)
23.11.2015 20:20 -7,0 C -7,7 C 86 % 1025,8 hPa 0,0 mm 0,0 km/h (0 Bft) SO 135 -8,9 C 0,0 km/h (0 Bft)
23.11.2015 20:25 -7,5 C -8,0 C 85 % 1025,8 hPa 0,0 mm 0,0 km/h (0 Bft) SO 135 -9,6 C 0,0 km/h (0 Bft)
23.11.2015 20:30 -8,0 C -8,4 C 85 % 1025,8 hPa 0,0 mm 0,0 km/h (0 Bft) SO 135 -10,1 C 0,0 km/h (0 Bft)
23.11.2015 20:35 -8,0 C -8,4 C 85 % 1025,9 hPa 0,0 mm 0,0 km/h (0 Bft) SO 135 -10,1 C 0,0 km/h (0 Bft)
23.11.2015 20:40 -8,1 C -8,5 C 85 % 1025,9 hPa 0,0 mm 0,0 km/h (0 Bft) SO 135 -10,2 C 0,0 km/h (0 Bft)
23.11.2015 20:45 -8,1 C -8,6 C 84 % 1025,9 hPa 0,0 mm 0,0 km/h (0 Bft) SO 135 -10,3 C 0,0 km/h (0 Bft)
23.11.2015 20:50 -7,9 C -8,5 C 85 % 1025,9 hPa 0,0 mm 0,0 km/h (0 Bft) SO 135 -10,0 C 0,0 km/h (0 Bft)
23.11.2015 20:55 -8,1 C -8,7 C 85 % 1025,7 hPa 0,0 mm 0,0 km/h (0 Bft) SO 135 -10,2 C 0,0 km/h (0 Bft)
23.11.2015 21:00 -8,2 C -8,8 C 84 % 1025,7 hPa 0,0 mm 0,0 km/h (0 Bft) SO 135 -10,4 C 0,0 km/h (0 Bft)
23.11.2015 21:05 -8,4 C -8,9 C 84 % 1025,7 hPa 0,0 mm 0,0 km/h (0 Bft) SO 135 -10,6 C 0,0 km/h (0 Bft)
23.11.2015 21:10 -8,5 C -8,9 C 84 % 1025,7 hPa 0,0 mm 0,0 km/h (0 Bft) SO 135 -10,7 C 0,0 km/h (0 Bft)
23.11.2015 21:15 -8,3 C -8,8 C 84 % 1025,9 hPa 0,0 mm 0,0 km/h (0 Bft) SO 135 -10,5 C 0,0 km/h (0 Bft)
23.11.2015 21:20 -7,6 C -8,3 C 85 % 1025,9 hPa 0,0 mm 0,0 km/h (0 Bft) SO 135 -9,7 C 0,0 km/h (0 Bft)
23.11.2015 21:25 -7,8 C -8,3 C 85 % 1025,9 hPa 0,0 mm 0,0 km/h (0 Bft) SO 135 -9,9 C 0,0 km/h (0 Bft)
23.11.2015 21:30 -7,2 C -7,9 C 86 % 1025,9 hPa 0,0 mm 0,5 km/h (0 Bft) S 180 -9,1 C 3,4 km/h (1 Bft)
23.11.2015 21:35 -7,2 C -7,8 C 86 % 1026,0 hPa 0,0 mm 0,5 km/h (0 Bft) S-SO 157 -9,1 C 0,0 km/h (0 Bft)
23.11.2015 21:40 -7,9 C -8,3 C 85 % 1026,0 hPa 0,0 mm 0,3 km/h (0 Bft) S-SO 157 -10,0 C 0,0 km/h (0 Bft)
23.11.2015 21:45 -8,4 C -8,7 C 85 % 1026,0 hPa 0,0 mm 0,0 km/h (0 Bft) S-SO 157 -10,5 C 0,0 km/h (0 Bft)
23.11.2015 21:50 -8,9 C -9,2 C 84 % 1026,0 hPa 0,0 mm 0,0 km/h (0 Bft) S-SO 157 -11,1 C 0,0 km/h (0 Bft)
23.11.2015 21:55 -9,1 C -9,4 C 84 % 1026,1 hPa 0,0 mm 0,0 km/h (0 Bft) S 180 -11,3 C 0,0 km/h (0 Bft)
23.11.2015 22:00 -9,3 C -9,6 C 84 % 1026,1 hPa 0,0 mm 0,0 km/h (0 Bft) S 180 -11,5 C 0,0 km/h (0 Bft)
23.11.2015 22:05 -8,9 C -9,3 C 84 % 1026,1 hPa 0,0 mm 0,0 km/h (0 Bft) S 180 -11,1 C 0,0 km/h (0 Bft)
23.11.2015 22:10 -9,2 C -9,5 C 84 % 1026,1 hPa 0,0 mm 0,0 km/h (0 Bft) S 180 -11,4 C 0,0 km/h (0 Bft)
23.11.2015 22:15 -9,3 C -9,7 C 83 % 1025,9 hPa 0,0 mm 0,0 km/h (0 Bft) S 180 -11,6 C 0,0 km/h (0 Bft)
23.11.2015 22:20 -9,1 C -9,6 C 83 % 1025,9 hPa 0,0 mm 0,0 km/h (0 Bft) S 180 -11,4 C 0,0 km/h (0 Bft)
23.11.2015 22:25 -9,1 C -9,5 C 84 % 1025,9 hPa 0,0 mm 0,0 km/h (0 Bft) S-SO 157 -11,3 C 0,0 km/h (0 Bft)
23.11.2015 22:30 -9,2 C -9,5 C 84 % 1025,9 hPa 0,0 mm 0,0 km/h (0 Bft) S 180 -11,4 C 0,0 km/h (0 Bft)
23.11.2015 22:35 -9,1 C -9,6 C 84 % 1025,9 hPa 0,0 mm 0,0 km/h (0 Bft) S 180 -11,3 C 0,0 km/h (0 Bft)
23.11.2015 22:40 -9,1 C -9,6 C 84 % 1025,9 hPa 0,0 mm 0,0 km/h (0 Bft) S 180 -11,3 C 0,0 km/h (0 Bft)
23.11.2015 22:45 -9,0 C -9,5 C 84 % 1025,9 hPa 0,0 mm 0,0 km/h (0 Bft) S 180 -11,2 C 0,0 km/h (0 Bft)
23.11.2015 22:50 -9,1 C -9,6 C 84 % 1025,9 hPa 0,0 mm 0,0 km/h (0 Bft) S 180 -11,3 C 0,0 km/h (0 Bft)
23.11.2015 22:55 -9,3 C -9,8 C 84 % 1025,8 hPa 0,0 mm 0,0 km/h (0 Bft) S 180 -11,5 C 0,0 km/h (0 Bft)
23.11.2015 23:00 -9,2 C -9,7 C 84 % 1025,8 hPa 0,0 mm 0,0 km/h (0 Bft) S 180 -11,4 C 0,0 km/h (0 Bft)
23.11.2015 23:05 -9,4 C -9,8 C 83 % 1025,8 hPa 0,0 mm 0,0 km/h (0 Bft) S-SO 157 -11,7 C 0,0 km/h (0 Bft)
23.11.2015 23:10 -9,0 C -9,6 C 84 % 1025,8 hPa 0,0 mm 0,0 km/h (0 Bft) S-SO 157 -11,2 C 0,0 km/h (0 Bft)
23.11.2015 23:15 -8,9 C -9,5 C 84 % 1025,8 hPa 0,0 mm 0,0 km/h (0 Bft) S 180 -11,1 C 0,0 km/h (0 Bft)
23.11.2015 23:20 -8,3 C -8,8 C 85 % 1025,8 hPa 0,0 mm 0,3 km/h (0 Bft) SO 135 -10,4 C 0,0 km/h (0 Bft)
23.11.2015 23:25 -8,5 C -9,0 C 84 % 1025,8 hPa 0,0 mm 0,3 km/h (0 Bft) SO 135 -10,7 C 0,0 km/h (0 Bft)
23.11.2015 23:30 -8,1 C -8,7 C 82 % 1025,8 hPa 0,0 mm 0,0 km/h (0 Bft) SO 135 -10,6 C 0,0 km/h (0 Bft)
23.11.2015 23:35 -8,5 C -8,8 C 81 % 1025,9 hPa 0,0 mm 0,0 km/h (0 Bft) S-SO 157 -11,2 C 0,0 km/h (0 Bft)
23.11.2015 23:40 -8,1 C -8,3 C 82 % 1025,9 hPa 0,0 mm 0,3 km/h (0 Bft) SW 225 -10,6 C 0,0 km/h (0 Bft)
23.11.2015 23:41 -8,1 C -8,3 C 82 % 1025,9 hPa 0,0 mm 0,3 km/h (0 Bft) SW 225 -10,6 C 0,0 km/h (0 Bft)
23.11.2015 23:45 -8,1 C -8,3 C 82 % 1025,9 hPa 0,0 mm 0,5 km/h (0 Bft) S-SO 157 -10,6 C 0,0 km/h (0 Bft)
23.11.2015 23:50 -8,9 C -9,1 C 85 % 1025,9 hPa 0,0 mm 0,3 km/h (0 Bft) S-SO 157 -10,9 C 0,0 km/h (0 Bft)
23.11.2015 23:55 -9,2 C -9,4 C 84 % 1025,7 hPa 0,0 mm 0,0 km/h (0 Bft) S-SO 157 -11,4 C 0,0 km/h (0 Bft)
_ Min-Zeit 23:05 23:05 15:10 00:05 - 23:55 - - 23:05 23:55
Minimum _ -9,4 C -9,8 C 74 % 1012,6 hPa - 0,0 km/h (0 Bft) - - -11,7 C 0,0 km/h (0 Bft)
_ Max-Zeit 13:45 13:45 07:25 17:40 23:55 12:50 - - 13:45 12:45
Maximum _ 1,8 C 6,2 C 89 % 1027,4 hPa 0,0 mm 10,4 km/h
W-NW (2 Bft)
- - -1,8 C 25,9 km/h
W-NW (4 Bft)
Durchschnitt _ -3,9 C -3,6 C 83 % 1019,8 hPa #0,0 mm 1,9 km/h (1 Bft) W-SW - -6,4 C 2,4 km/h (1 Bft)